IU1DOF-3 Weather Reports


time (UTC)temp
C
wind
direction
speed
KPH
gust
KPH
rain 1hr
cm
rain 24hr
cm
rain mn
cm
humidity
%
barometer
mb
20260507234530 10 285 0.0 0.0 0.00 0.00 0.00 93 1013.1
20260507233521 10 284 0.0 0.0 0.00 0.00 0.00 92 1013.2
20260507232512 10 286 1.6 1.6 0.00 0.00 0.00 91 1013.2
20260507231449 10 287 1.6 3.2 0.00 0.00 0.00 91 1013.2
20260507230439 10 284 1.6 1.6 0.00 0.00 0.00 92 1013.3
20260507225418 10 284 0.0 1.6 0.00 0.00 0.00 92 1013.2
20260507224353 10 287 1.6 1.6 0.00 0.00 0.00 92 1013.3
20260507223340 10 285 1.6 3.2 0.00 0.00 0.00 93 1013.3
20260507222321 10 286 1.6 1.6 0.00 0.00 0.00 93 1013.3
20260507221257 10 282 0.0 0.0 0.00 0.00 0.00 92 1012.9
20260507220234 10 284 0.0 0.0 0.00 0.00 0.00 92 1013.1
20260507215209 10 287 0.0 0.0 0.00 0.00 0.00 91 1013.0
20260507214145 10 287 0.0 0.0 0.00 0.00 0.00 92 1012.8
20260507213137 10 286 0.0 0.0 0.00 0.00 0.00 93 1012.9
20260507212113 10 284 0.0 0.0 0.00 0.00 0.00 93 1012.7
20260507211049 11 287 1.6 3.2 0.00 0.00 0.00 92 1012.7
20260507210039 11 287 0.0 0.0 0.00 0.00 0.00 94 1012.8
20260507205017 11 287 1.6 3.2 0.00 0.00 0.00 94 1012.8
20260507203954 11 287 0.0 0.0 0.00 0.00 0.00 94 1012.7
20260507202939 11 284 0.0 0.0 0.00 0.00 0.00 93 1012.7
20260507201921 11 299 0.0 0.0 0.00 0.00 0.00 93 1012.7
20260507200857 11 285 0.0 0.0 0.00 0.00 0.00 92 1012.6
20260507195840 11 302 1.6 3.2 0.00 0.00 0.00 90 1012.4
20260507194826 11 284 1.6 3.2 0.00 0.00 0.00 91 1012.2
20260507193801 12 284 1.6 1.6 0.00 0.00 0.00 90 1012.1
20260507192737 12 283 0.0 1.6 0.00 0.00 0.00 90 1011.8
20260507191714 12 268 1.6 1.6 0.00 0.00 0.00 88 1011.9
20260507190650 12 288 3.2 4.8 0.00 0.00 0.00 89 1011.5
20260507185639 12 286 3.2 3.2 0.00 0.00 0.00 90 1011.4
20260507184617 12 285 3.2 3.2 0.00 0.00 0.00 90 1011.4
20260507183553 12 284 1.6 1.6 0.00 0.00 0.00 91 1011.5
20260507182541 12 286 1.6 3.2 0.00 0.00 0.00 90 1011.4
20260507181522 12 285 3.2 3.2 0.00 0.00 0.00 89 1011.2
20260507180458 12 285 1.6 1.6 0.00 0.00 0.00 91 1011.3
20260507175439 12 296 0.0 0.0 0.00 0.00 0.00 90 1010.9
20260507174425 13 287 0.0 0.0 0.00 0.00 0.00 91 1011.2
20260507173401 13 304 1.6 1.6 0.00 0.00 0.00 89 1011.1
20260507172338 14 267 0.0 0.0 0.00 0.00 0.00 76 1011.1
20260507171313 15 220 0.0 1.6 0.00 0.00 0.00 73 1011.0
20260507170249 16 219 0.0 0.0 0.00 0.00 0.00 72 1010.8
20260507165239 15 251 0.0 0.0 0.00 0.00 0.00 73 1010.9
20260507164218 15 156 1.6 1.6 0.00 0.00 0.00 71 1010.9
20260507163153 15 216 0.0 0.0 0.00 0.00 0.00 72 1011.0
20260507162139 15 251 0.0 0.0 0.00 0.00 0.00 71 1010.8
20260507161121 15 253 0.0 1.6 0.00 0.00 0.00 73 1010.8
20260507160058 15 256 0.0 1.6 0.00 0.00 0.00 72 1011.0
20260507155040 15 260 0.0 1.6 0.00 0.00 0.00 72 1010.6
20260507154025 15 258 4.8 8.0 0.00 0.00 0.00 71 1010.6
20260507153001 16 238 4.8 4.8 0.00 0.00 0.00 70 1010.4
20260507151938 17 256 1.6 3.2 0.00 0.00 0.00 69 1010.4
20260507150913 17 242 0.0 1.6 0.00 0.00 0.00 68 1010.6
20260507145849 16 245 0.0 0.0 0.00 0.00 0.00 69 1010.8
20260507144842 16 247 1.6 3.2 0.00 0.00 0.00 70 1010.8
20260507143818 16 270 1.6 3.2 0.00 0.00 0.00 71 1010.6
20260507142753 15 261 3.2 4.8 0.00 0.00 0.00 70 1010.8
20260507141740 16 242 3.2 4.8 0.00 0.00 0.00 69 1011.0
20260507140722 16 271 1.6 1.6 0.00 0.00 0.00 68 1010.7
20260507135657 17 277 1.6 3.2 0.00 0.00 0.00 68 1010.9
20260507134639 16 98 3.2 4.8 0.00 0.00 0.00 69 1011.0
20260507133626 17 271 3.2 6.4 0.00 0.00 0.00 67 1011.1
20260507132602 16 265 3.2 3.2 0.00 0.00 0.00 67 1011.1
20260507131539 16 219 3.2 6.4 0.00 0.00 0.00 69 1011.1
20260507130529 16 307 0.0 1.6 0.00 0.00 0.00 68 1011.1
20260507125505 16 263 3.2 4.8 0.00 0.00 0.00 69 1011.2
20260507124442 15 208 0.0 1.6 0.00 0.00 0.00 69 1011.3
20260507123433 16 124 3.2 6.4 0.00 0.00 0.00 69 1011.2
20260507122426 16 275 1.6 3.2 0.00 0.00 0.00 68 1011.4
20260507121403 17 285 1.6 3.2 0.00 0.00 0.00 67 1011.3
20260507120354 15 248 0.0 1.6 0.00 0.00 0.00 71 1011.4
20260507114322 16 263 0.0 3.2 0.00 0.00 0.00 73 1011.4
20260507113258 16 256 0.0 1.6 0.00 0.00 0.00 69 1011.5
20260507112233 16 264 0.0 1.6 0.00 0.00 0.00 73 1011.7
20260507111209 16 228 0.0 1.6 0.00 0.00 0.00 70 1011.8
20260507110201 16 243 0.0 1.6 0.00 0.00 0.00 70 1011.8
20260507105153 16 180 3.2 4.8 0.00 0.00 0.00 67 1012.1
20260507104145 15 122 1.6 4.8 0.00 0.00 0.00 71 1011.9
20260507103137 15 263 1.6 3.2 0.00 0.00 0.00 72 1012.0
20260507102130 13 245 3.2 4.8 0.00 0.00 0.00 74 1012.2
20260507101121 15 264 0.0 3.2 0.00 0.00 0.00 72 1011.9
20260507100058 14 256 0.0 1.6 0.00 0.00 0.00 75 1012.0
20260507095039 15 254 0.0 1.6 0.00 0.00 0.00 74 1011.7
20260507094025 14 251 3.2 6.4 0.00 0.00 0.00 72 1011.7
20260507093002 15 248 0.0 1.6 0.00 0.00 0.00 75 1011.7
20260507091938 15 235 3.2 8.0 0.00 0.00 0.00 75 1011.6
20260507090914 14 203 1.6 3.2 0.00 0.00 0.00 75 1011.7
20260507085906 13 242 3.2 4.8 0.00 0.00 0.00 76 1011.4
20260507084842 13 209 6.4 8.0 0.00 0.00 0.00 76 1011.5
20260507083833 13 231 4.8 6.4 0.00 0.00 0.00 76 1011.4
20260507082825 12 254 8.0 9.7 0.00 0.00 0.00 78 1011.4
20260507081802 12 244 4.8 4.8 0.00 0.00 0.00 77 1011.4
20260507080753 13 248 6.4 8.0 0.00 0.00 0.00 75 1011.4
20260507075740 12 253 0.0 0.0 0.00 0.00 0.00 76 1011.6
20260507074722 13 244 0.0 0.0 0.00 0.00 0.00 73 1011.7
20260507073658 12 248 0.0 1.6 0.00 0.00 0.00 69 1011.6
20260507072640 12 278 0.0 1.6 0.00 0.00 0.00 71 1011.7
20260507071626 11 282 0.0 0.0 0.00 0.00 0.00 77 1011.3
20260507070602 9 283 0.0 0.0 0.00 0.00 0.00 83 1011.5
20260507065539 8 285 0.0 0.0 0.00 0.00 0.00 82 1011.6
20260507064530 8 286 0.0 0.0 0.00 0.00 0.00 81 1011.5
20260507063506 8 286 0.0 0.0 0.00 0.00 0.00 80 1011.5
20260507062443 8 285 0.0 0.0 0.00 0.00 0.00 81 1011.6
20260507061418 8 295 1.6 1.6 0.00 0.00 0.00 77 1011.5
20260507060355 7 308 0.0 0.0 0.00 0.00 0.00 84 1011.4
20260507055340 6 328 0.0 1.6 0.00 0.00 0.00 89 1011.4
20260507054323 5 313 0.0 0.0 0.00 0.00 0.00 95 1011.2
20260507053258 5 309 0.0 0.0 0.00 0.00 0.00 96 1011.1
20260507052240 5 309 0.0 0.0 0.00 0.00 0.00 96 1011.2
20260507051225 5 311 0.0 0.0 0.00 0.00 0.00 96 1011.0
20260507050202 4 297 0.0 0.0 0.00 0.00 0.00 98 1010.7
20260507045139 4 302 0.0 0.0 0.00 0.00 0.00 98 1010.7
20260507044114 4 302 0.0 0.0 0.00 0.00 0.00 97 1010.7
20260507043050 4 301 0.0 0.0 0.00 0.00 0.00 97 1010.5
20260507042040 4 302 0.0 0.0 0.00 0.00 0.00 96 1010.6
20260507041018 5 302 3.2 3.2 0.00 0.00 0.00 96 1010.2
20260507035954 5 302 0.0 0.0 0.00 0.00 0.00 97 1010.2
20260507034940 5 302 0.0 0.0 0.00 0.00 0.00 98 1010.3
20260507033922 5 302 0.0 0.0 0.00 0.00 0.00 97 1010.4
20260507032858 5 302 0.0 0.0 0.00 0.00 0.00 97 1010.3
20260507031839 5 302 0.0 0.0 0.00 0.00 0.00 97 1010.2
20260507030826 5 302 0.0 0.0 0.00 0.00 0.00 97 1010.5
20260507025802 5 302 0.0 0.0 0.00 0.00 0.00 97 1010.4
20260507024738 5 296 0.0 0.0 0.00 0.00 0.00 97 1010.1
20260507023714 5 309 0.0 0.0 0.00 0.00 0.00 97 1010.1
20260507022650 5 308 0.0 0.0 0.00 0.00 0.00 98 1010.1
20260507021640 5 309 0.0 0.0 0.00 0.00 0.00 98 1010.0
20260507020617 5 310 0.0 0.0 0.00 0.00 0.00 98 1010.0
20260507015554 5 309 0.0 0.0 0.00 0.00 0.00 97 1009.9
20260507014540 5 309 0.0 0.0 0.00 0.00 0.00 97 1010.0
20260507013522 6 312 0.0 0.0 0.00 0.00 0.00 97 1010.0
20260507012459 5 316 0.0 0.0 0.00 0.00 0.00 97 1010.0
20260507011433 6 289 1.6 3.2 0.00 0.00 0.00 97 1009.8
20260507010410 6 313 0.0 0.0 0.00 0.00 0.00 97 1010.1
20260507005346 6 334 1.6 3.2 0.00 0.00 0.00 99 1010.0
20260507004343 6 302 0.0 0.0 0.00 0.00 0.00 99 1010.1
20260507003314 6 288 0.0 0.0 0.00 0.00 0.00 99 1010.0
20260507002250 6 288 0.0 0.0 0.00 0.00 0.00 99 1010.0
20260507001241 7 289 0.0 0.0 0.00 0.00 0.00 98 1009.8
20260507000219 7 289 0.0 0.0 0.00 0.00 0.00 98 1009.7
20260506235154 7 289 0.0 0.0 0.00 0.00 0.00 98 1009.6